Regional Weather Roundup
Issued by NWS

Home | Current Version | Previous Version | Text Only | Print | Product List | Glossary On
Versions: 1 2 3 4 5 6 7 8 9 10 11 12 13 14 15 16 17 18 19 20 21 22 23 24 25 26 27 28 29 30 31 32 33 34 35 36 37 38 39 40 41 42 43 44 45 46 47 48 49 50
979
ASUS43 KBIS 290910
RWRND

NORTH DAKOTA REGIONAL WEATHER ROUNDUP
NATIONAL WEATHER SERVICE BISMARCK ND
400 AM CDT SAT APR 29 2017

NOTE: "FAIR" INDICATES FEW OR NO CLOUDS BELOW 12,000 FEET WITH NO
SIGNIFICANT WEATHER AND/OR OBSTRUCTIONS TO VISIBILITY.


NDZ001>003-009>011-017-291000-
NORTHWEST NORTH DAKOTA

CITY           SKY/WX    TMP DP  RH WIND       PRES   REMARKS
WILLISTON      FAIR      37  27  67 SW6       30.17S
MINOT          FAIR      34  26  72 S5        30.18S
MINOT AFB      PTCLDY    37  25  63 S3        30.17S
$$

NDZ018>021-031>035-040>046-291000-
SOUTHWEST NORTH DAKOTA

CITY           SKY/WX    TMP DP  RH WIND       PRES   REMARKS
BISMARCK       FAIR      30  25  81 CALM      30.23S
DICKINSON      FAIR      30  19  63 S5        30.18S
GARRISON         N/A     29  23  78 CALM      30.20S
HETTINGER ARPT PTCLDY    26  21  81 CALM      30.20F
$$

NDZ004>008-012>016-024-026-027-054-291000-
NORTHEAST NORTH DAKOTA

CITY           SKY/WX    TMP DP  RH WIND       PRES   REMARKS
GRAND FORKS    CLEAR     31  26  82 NW3       30.24R
GRND FRKS AFB  CLEAR     29  25  86 CALM      30.24R
DEVILS LAKE    FAIR      31  28  89 CALM      30.24R
$$

NDZ022-023-025-028>030-036>039-047>053-291000-
SOUTHEAST NORTH DAKOTA

CITY           SKY/WX    TMP DP  RH WIND       PRES   REMARKS
FARGO          CLEAR     31  24  75 CALM      30.24R
JAMESTOWN      FAIR      29  26  89 CALM      30.22S
$$





USA.gov is the U.S. government's official web portal to all federal, state and local government web resources and services.